TimeEST,TemperatureF,Dew PointF,Humidity,Sea Level PressureIn,VisibilityMPH,Wind Direction,Wind SpeedMPH,Gust SpeedMPH,PrecipitationIn,Events,Conditions,WindDirDegrees,DateUTC
12:45 AM,25.0,18.0,75,29.58,1.0,NNE,8.1,-,0.03,Snow,Light Snow,20,2012-12-27 05:45:00
12:53 AM,25.0,18.0,75,29.65,1.2,NNE,6.9,-,0.03,Snow,Light Snow,20,2012-12-27 05:53:00
1:39 AM,24.1,16.0,71,29.57,2.5,NNE,10.4,-,0.00,Snow,Light Snow,30,2012-12-27 06:39:00
1:45 AM,24.1,16.0,71,29.57,3.0,NE,11.5,-,0.00,Snow,Light Snow,40,2012-12-27 06:45:00
1:53 AM,24.1,16.0,71,29.64,3.0,NE,8.1,-,0.00,Snow,Light Snow,40,2012-12-27 06:53:00
2:53 AM,25.0,16.0,69,29.64,10.0,NNE,9.2,-,0.00,,Overcast,20,2012-12-27 07:53:00
3:53 AM,25.0,17.1,72,29.64,10.0,NE,5.8,-,N/A,,Overcast,50,2012-12-27 08:53:00
4:53 AM,26.1,18.0,71,29.65,8.0,NNW,5.8,-,N/A,,Overcast,340,2012-12-27 09:53:00
5:01 AM,25.0,18.0,75,29.59,6.0,NW,5.8,-,0.00,Snow,Light Snow,310,2012-12-27 10:01:00
5:17 AM,25.0,18.0,75,29.60,4.0,NW,6.9,-,0.00,,Haze,310,2012-12-27 10:17:00
5:34 AM,25.0,18.0,75,29.60,2.5,NW,6.9,-,0.00,Snow,Light Snow,310,2012-12-27 10:34:00
5:53 AM,26.1,19.9,78,29.68,2.5,NW,6.9,-,0.00,Snow,Light Snow,320,2012-12-27 10:53:00
6:18 AM,26.1,19.9,78,29.62,3.0,NW,6.9,-,0.00,,Haze,310,2012-12-27 11:18:00
6:53 AM,26.1,19.9,78,29.70,4.0,NW,8.1,-,0.00,,Haze,310,2012-12-27 11:53:00
7:53 AM,26.1,19.9,78,29.72,6.0,WNW,9.2,-,0.00,Snow,Light Snow,300,2012-12-27 12:53:00
8:09 AM,26.1,19.9,78,29.66,2.5,WNW,9.2,-,0.00,Snow,Light Snow,300,2012-12-27 13:09:00
8:28 AM,26.1,19.9,78,29.67,5.0,NW,11.5,-,0.00,Snow,Light Snow,310,2012-12-27 13:28:00
8:53 AM,26.1,19.0,75,29.75,8.0,NW,16.1,-,0.00,Snow,Light Snow,310,2012-12-27 13:53:00
9:53 AM,26.1,19.0,75,29.79,4.0,NW,15.0,-,0.00,,Overcast,310,2012-12-27 14:53:00
10:53 AM,26.1,19.0,75,29.82,8.0,NW,13.8,-,0.00,,Overcast,310,2012-12-27 15:53:00
11:53 AM,26.1,19.0,75,29.82,5.0,NW,15.0,-,N/A,,Haze,310,2012-12-27 16:53:00
12:39 PM,26.1,19.0,75,29.75,2.0,WNW,17.3,25.3,0.00,Snow,Light Snow,290,2012-12-27 17:39:00
12:48 PM,26.6,19.4,74,29.75,6.0,NW,18.4,25.3,0.00,,Haze,310,2012-12-27 17:48:00
12:53 PM,26.1,19.0,75,29.82,6.0,NW,15.0,25.3,0.00,,Haze,310,2012-12-27 17:53:00
1:53 PM,25.0,19.0,78,29.83,3.0,NW,17.3,-,0.00,Snow,Light Snow,310,2012-12-27 18:53:00
2:00 PM,25.0,19.0,78,29.76,1.8,NW,13.8,23.0,0.00,Snow,Light Snow,310,2012-12-27 19:00:00
2:20 PM,25.0,19.0,78,29.76,2.0,NW,19.6,27.6,0.00,,Haze,310,2012-12-27 19:20:00
2:28 PM,25.0,19.0,78,29.77,1.8,WNW,16.1,27.6,0.00,,Haze,300,2012-12-27 19:28:00
2:38 PM,25.0,19.0,78,29.77,2.5,WNW,13.8,-,0.00,,Haze,300,2012-12-27 19:38:00
2:53 PM,25.0,19.0,78,29.85,2.0,WNW,11.5,-,0.00,Snow,Light Snow,300,2012-12-27 19:53:00
3:09 PM,25.0,19.0,78,29.78,1.8,WNW,17.3,-,0.00,Snow,Light Snow,290,2012-12-27 20:09:00
3:20 PM,25.0,19.0,78,29.78,2.0,WNW,17.3,-,0.00,,Overcast,290,2012-12-27 20:20:00
3:53 PM,25.0,19.0,78,29.87,3.0,NW,13.8,24.2,0.00,,Haze,310,2012-12-27 20:53:00
4:19 PM,25.0,19.0,78,29.81,4.0,WNW,16.1,24.2,N/A,,Haze,290,2012-12-27 21:19:00
4:42 PM,25.0,19.0,78,29.82,2.5,WNW,13.8,-,N/A,,Haze,290,2012-12-27 21:42:00
4:53 PM,25.0,19.9,81,29.89,2.5,WNW,15.0,23.0,N/A,,Haze,300,2012-12-27 21:53:00
5:00 PM,25.0,19.9,81,29.82,4.0,WNW,18.4,-,N/A,,Haze,300,2012-12-27 22:00:00
5:53 PM,26.1,19.9,78,29.92,9.0,NW,19.6,27.6,N/A,,Overcast,310,2012-12-27 22:53:00
6:03 PM,27.0,19.9,75,29.85,9.0,NW,18.4,27.6,N/A,,Overcast,320,2012-12-27 23:03:00
6:53 PM,27.0,21.0,78,29.95,10.0,NW,13.8,-,N/A,,Overcast,310,2012-12-27 23:53:00
7:53 PM,27.0,21.9,81,29.96,7.0,WNW,12.7,-,N/A,,Overcast,300,2012-12-28 00:53:00
8:09 PM,28.0,21.9,78,29.90,8.0,WNW,13.8,-,N/A,,Overcast,300,2012-12-28 01:09:00
8:53 PM,28.0,21.9,78,29.98,7.0,NW,15.0,25.3,N/A,,Overcast,310,2012-12-28 01:53:00
9:24 PM,28.0,21.9,78,29.91,9.0,WNW,10.4,-,N/A,,Overcast,290,2012-12-28 02:24:00
9:40 PM,28.0,21.0,75,29.92,10.0,WNW,18.4,25.3,N/A,,Overcast,300,2012-12-28 02:40:00
9:50 PM,28.4,21.2,74,29.92,10.0,WNW,11.5,23.0,N/A,,Overcast,300,2012-12-28 02:50:00
9:53 PM,28.0,21.0,75,29.99,10.0,WNW,12.7,23.0,N/A,,Overcast,300,2012-12-28 02:53:00
10:53 PM,27.0,19.9,75,30.00,10.0,WNW,11.5,23.0,N/A,,Overcast,300,2012-12-28 03:53:00
11:53 PM,27.0,21.0,78,30.02,9.0,WNW,12.7,-,N/A,,Overcast,300,2012-12-28 04:53:00